GW3037 Weather Reports


time (UTC)temp
C
wind
direction
speed
KPH
gust
KPH
rain 1hr
cm
rain 24hr
cm
rain mn
cm
humidity
%
barometer
mb
20260506201539 27 96 6.4 14.5 0.00 0.00 0.00 82 1009.2
20260506200120 27 101 6.4 12.9 0.00 0.00 0.00 83 1009.2
20260506194543 27 111 4.8 14.5 0.00 0.00 0.00 84 1009.5
20260506193055 27 97 8.0 14.5 0.00 0.00 0.00 84 1009.8
20260506191505 27 105 4.8 12.9 0.00 0.00 0.00 84 1010.0
20260506190007 27 105 9.7 16.1 0.00 0.00 0.00 83 1010.1
20260506184518 27 115 9.7 17.7 0.00 0.00 0.00 83 1010.1
20260506183023 27 119 8.0 16.1 0.00 0.00 0.00 83 1010.3
20260506181531 27 116 11.3 17.7 0.00 0.00 0.00 83 1010.3
20260506180034 27 130 9.7 16.1 0.00 0.00 0.00 82 1010.4
20260506174531 27 114 8.0 16.1 0.00 0.00 0.00 81 1010.4
20260506173032 27 126 8.0 17.7 0.00 0.00 0.00 81 1010.3
20260506171548 28 138 6.4 20.9 0.00 0.00 0.00 81 1010.1
20260506170037 27 144 6.4 16.1 0.00 0.00 0.00 82 1010.2
20260506164539 27 146 6.4 19.3 0.00 0.00 0.00 84 1010.1
20260506163048 26 140 9.7 22.5 0.00 0.00 0.00 84 1010.2
20260506161556 26 140 8.0 19.3 0.00 0.00 0.00 84 1010.1
20260506160104 26 147 11.3 20.9 0.00 0.00 0.00 85 1010.0
20260506154557 26 142 9.7 20.9 0.00 0.00 0.00 85 1009.7
20260506153058 26 161 11.3 20.9 0.00 0.00 0.00 87 1009.6
20260506151508 26 146 14.5 24.1 0.00 0.00 0.00 88 1009.6
20260506150008 25 153 9.7 19.3 0.00 0.00 0.00 88 1009.5
20260506144512 25 145 11.3 19.3 0.00 0.00 0.00 87 1009.5
20260506143020 26 146 11.3 20.9 0.00 0.00 0.00 87 1009.5
20260506141522 26 140 14.5 19.3 0.00 0.00 0.00 86 1009.6
20260506140011 26 146 11.3 25.7 0.00 0.00 0.00 86 1009.6
20260506134526 26 144 12.9 22.5 0.00 0.00 0.00 86 1009.4
20260506133018 26 144 11.3 17.7 0.00 0.00 0.00 87 1009.6
20260506131526 26 148 9.7 17.7 0.00 0.00 0.00 87 1009.6
20260506130024 26 144 9.7 19.3 0.00 0.00 0.00 87 1009.4
20260506124528 25 146 8.0 19.3 0.00 0.00 0.00 87 1009.1
20260506123028 25 143 6.4 14.5 0.00 0.00 0.00 87 1009.0
20260506121530 25 140 4.8 11.3 0.00 0.00 0.00 87 1008.9
20260506120032 25 142 6.4 14.5 0.00 0.00 0.00 87 1008.8
20260506114543 25 143 6.4 14.5 0.00 0.00 0.00 87 1008.6
20260506113039 25 142 4.8 16.1 0.00 0.00 0.00 87 1008.6
20260506111547 25 146 6.4 12.9 0.00 0.00 0.00 87 1008.6
20260506110051 25 146 4.8 8.0 0.00 0.00 0.00 87 1008.6
20260506104553 25 146 4.8 12.9 0.00 0.00 0.00 87 1008.4
20260506103105 25 148 3.2 12.9 0.00 0.00 0.00 87 1008.3
20260506101506 25 147 6.4 14.5 0.00 0.00 0.00 87 1008.3
20260506100016 25 146 6.4 16.1 0.00 0.00 0.00 87 1008.3
20260506094519 25 142 8.0 14.5 0.00 0.00 0.00 87 1008.0
20260506093021 25 148 9.7 17.7 0.00 0.00 0.00 87 1008.0
20260506091524 25 148 9.7 19.3 0.00 0.00 0.00 87 1007.9
20260506090029 25 143 12.9 20.9 0.00 0.00 0.00 86 1007.7
20260506084536 25 144 12.9 29.0 0.00 0.00 0.00 86 1007.7
20260506083037 25 132 12.9 25.7 0.00 0.00 0.00 86 1007.6
20260506081547 25 147 14.5 29.0 0.00 0.00 0.00 86 1007.5
20260506073042 26 136 11.3 24.1 0.00 0.00 0.00 84 1008.4
20260506071553 26 155 9.7 22.5 0.00 0.00 0.00 84 1008.8
20260506070123 26 154 14.5 24.1 0.00 0.00 0.00 84 1008.8
20260506061601 26 151 11.3 27.4 0.00 0.00 0.00 86 1009.1
20260506061504 25 144 12.9 27.4 0.00 0.00 0.00 86 1009.1
20260506044520 26 143 14.5 25.7 0.00 0.00 0.00 85 1009.4
20260506043020 26 148 14.5 24.1 0.00 0.00 0.00 85 1009.5
20260506041526 26 157 14.5 22.5 0.00 0.00 0.00 86 1009.3
20260506040031 26 145 12.9 25.7 0.00 0.00 0.00 85 1009.2
20260506034534 26 140 16.1 27.4 0.00 0.00 0.00 85 1009.0
20260506033035 26 148 16.1 27.4 0.00 0.00 0.00 85 1008.8
20260506031541 26 139 14.5 29.0 0.00 0.00 0.00 85 1008.9
20260506030025 26 150 16.1 27.4 0.00 0.00 0.00 85 1008.8
20260506024525 26 159 14.5 22.5 0.00 0.00 0.00 85 1008.7
20260506023015 26 143 16.1 27.4 0.00 0.00 0.00 85 1008.4
20260506021519 26 143 16.1 32.2 0.00 0.00 0.00 85 1008.1
20260506020025 26 136 16.1 30.6 0.00 0.00 0.00 85 1008.0
20260506014529 26 127 17.7 27.4 0.00 0.00 0.00 85 1007.8
20260506013039 26 144 19.3 30.6 0.00 0.00 0.00 85 1007.6
20260506011607 26 142 16.1 32.2 0.00 0.00 0.00 84 1007.5
20260506010047 26 143 19.3 30.6 0.00 0.00 0.00 84 1007.3
20260506004601 26 157 17.7 32.2 0.00 0.00 0.00 84 1007.1
20260506003057 26 185 19.3 30.6 0.00 0.00 0.00 83 1007.0
20260506001604 26 134 17.7 32.2 0.00 0.00 0.00 83 1007.2
20260506001502 26 130 17.7 33.8 0.00 0.00 0.00 83 1007.0
20260506000003 26 148 17.7 30.6 0.00 0.00 0.00 82 1006.9
20260505234515 26 135 20.9 33.8 0.00 0.00 0.00 82 1006.8
20260505233009 27 134 19.3 35.4 0.00 0.00 0.00 81 1006.8
20260505231515 27 145 20.9 33.8 0.00 0.00 0.00 80 1006.7
20260505230109 27 167 20.9 38.6 0.00 0.00 0.00 80 1006.7
20260505230003 27 152 19.3 38.6 0.00 0.00 0.00 79 1006.8
20260505224559 27 142 20.9 33.8 0.00 0.00 0.00 79 1006.8
20260505224505 27 151 20.9 33.8 0.00 0.00 0.00 79 1007.0
20260505223051 27 160 20.9 33.8 0.00 0.00 0.00 79 1006.9
20260505221601 27 157 14.5 35.4 0.00 0.00 0.00 78 1007.1
20260505220053 27 136 17.7 33.8 0.00 0.00 0.00 78 1007.3
20260505214557 27 142 20.9 30.6 0.00 0.00 0.00 77 1007.4
20260505213003 27 138 20.9 33.8 0.00 0.00 0.00 78 1007.6
20260505211505 28 134 17.7 33.8 0.00 0.00 0.00 77 1007.7
20260505210007 28 138 22.5 38.6 0.00 0.00 0.00 76 1007.9
20260505204508 28 153 20.9 35.4 0.00 0.00 0.00 76 1008.0